Date,TemperatureHighF,TemperatureAvgF,TemperatureLowF,DewpointHighF,DewpointAvgF,DewpointLowF,HumidityHigh,HumidityAvg,HumidityLow,PressureMaxIn,PressureMinIn,WindSpeedMaxMPH,WindSpeedAvgMPH,GustSpeedMaxMPH,PrecipitationSumIn
2013-1-11,54.3,49.1,42.6,50.9,44.0,34.8,93,83,66,30.57,30.26,5,1,6,0.00
2013-1-12,67.3,57.8,52.2,62.3,55.3,50.1,95,91,50,30.29,30.23,2,0,2,0.00
2013-1-13,73.8,61.4,55.6,65.3,58.0,54.1,96,89,72,30.27,30.18,5,0,5,0.00
2013-1-14,71.8,60.4,50.0,64.7,55.4,32.1,96,85,50,30.29,30.21,32,4,32,0.00
2013-1-15,59.7,47.9,45.1,58.0,45.9,43.1,95,93,91,30.35,30.20,2,1,2,0.00
2013-1-16,51.3,48.4,46.0,49.9,46.9,44.7,95,95,93,30.20,30.09,2,0,2,0.00
2013-1-17,52.0,46.8,33.3,50.6,45.4,31.7,96,95,93,30.21,30.03,7,2,8,0.47
2013-1-18,47.3,36.8,29.3,37.2,31.7,26.5,95,83,57,30.65,30.21,8,2,8,0.04
2013-1-19,53.2,36.9,25.2,38.2,30.7,22.9,93,79,53,30.63,30.27,7,0,7,0.00
2013-1-20,64.2,47.0,35.4,42.9,36.4,30.7,90,69,42,30.27,30.09,7,1,7,0.00
2013-1-21,59.2,44.1,30.0,38.8,32.2,24.6,87,65,40,30.20,29.97,7,0,7,0.00
2013-1-22,42.4,34.1,24.1,24.6,14.2,7.3,65,45,29,30.41,30.06,10,2,10,0.00
2013-1-23,40.8,28.7,19.0,20.3,15.7,12.3,78,60,37,30.51,30.19,6,0,6,0.00
2013-1-24,36.7,30.2,21.4,26.4,17.7,10.0,79,60,44,30.64,30.08,59,4,62,0.00
2013-1-25,29.7,25.6,19.9,25.7,17.8,10.2,85,72,55,30.65,30.23,3,0,4,0.04
2013-1-26,37.8,31.4,26.1,31.9,27.4,23.0,88,85,78,30.52,30.21,4,0,5,0.02
2013-1-27,42.1,31.7,25.7,31.4,26.5,23.0,90,76,50,30.72,30.51,5,1,8,0.00
2013-1-28,52.0,40.8,27.7,45.0,36.2,24.3,90,83,74,30.64,30.34,6,0,6,0.00
2013-1-29,73.8,57.7,45.5,60.6,51.7,42.8,93,81,62,30.34,30.20,7,1,7,0.00
2013-1-30,73.2,65.8,55.6,65.3,61.2,53.3,96,86,75,30.21,29.55,14,3,14,0.00
2013-1-31,69.4,48.8,33.1,64.5,35.9,-99.9,88,64,39,30.15,29.50,16,2,16,0.33
2013-2-1,41.5,34.7,26.4,32.7,19.6,10.1,82,56,34,30.51,30.01,14,2,14,0.00
2013-2-2,44.4,32.8,19.8,34.4,18.7,10.4,80,58,37,30.53,30.15,8,1,8,0.02
2013-2-3,51.1,42.7,32.5,38.7,32.4,-99.9,86,69,48,30.15,29.97,7,-2,7,0.00
2013-2-4,50.7,37.7,26.1,30.0,26.8,21.8,85,66,43,30.27,30.10,5,0,5,0.00
2013-2-5,60.6,44.9,35.8,39.8,34.3,27.5,82,68,43,30.14,30.00,7,0,7,0.00
2013-2-6,64.0,45.4,30.9,41.2,32.4,27.2,88,64,32,30.40,30.09,32,2,32,0.00
2013-2-7,52.0,44.3,35.8,42.4,38.6,31.5,93,81,68,30.45,30.09,12,4,12,0.22
2013-2-8,56.5,46.5,42.3,47.5,42.2,-99.9,94,86,70,30.09,29.87,14,1,14,0.45
2013-2-9,47.7,47.2,46.7,37.7,37.4,37.1,69,68,68,30.18,30.08,15,11,16,0.00
2013-2-10,50.0,48.2,45.7,39.1,38.0,35.7,68,68,66,30.43,30.18,32,19,32,0.00
2013-2-11,61.9,54.3,44.2,59.8,51.0,35.7,94,88,68,30.37,30.03,1,0,1,0.00
2013-2-12,63.7,33.5,47.3,53.7,-8.2,-99.9,92,49,50,30.20,30.04,7,-350,7,0.00
2013-2-13,48.7,47.2,45.0,46.8,44.2,41.0,93,89,76,30.07,29.74,0,0,0,0.00
2013-2-14,53.4,43.9,32.2,42.3,35.0,30.1,93,73,50,30.19,29.92,32,9,32,0.00
2013-2-15,63.1,44.0,30.4,44.9,35.4,28.3,92,75,43,30.21,30.05,0,0,0,0.00
2013-2-16,44.2,37.9,32.5,37.6,33.5,30.4,92,84,73,30.08,29.93,8,3,8,0.12
2013-2-17,37.9,31.0,25.2,30.5,21.6,15.7,92,70,45,30.39,30.02,12,2,12,0.04
2013-2-18,52.0,34.3,19.6,28.5,23.0,15.4,86,66,38,30.54,30.39,5,0,5,0.00
2013-2-19,54.5,43.2,31.5,50.3,38.9,25.3,91,85,74,30.39,29.97,8,1,8,0.08
2013-2-20,54.3,42.3,32.7,36.9,27.5,21.0,92,59,31,30.26,30.07,10,1,10,0.00
2013-2-21,55.6,41.1,27.0,28.4,24.4,20.4,80,54,34,30.39,30.23,7,1,7,0.00
2013-2-22,41.2,37.3,32.5,35.3,29.8,-99.9,91,76,51,30.48,30.26,6,-7,6,0.25
2013-2-23,45.1,41.2,37.4,43.0,39.1,35.0,93,92,91,30.26,29.93,0,0,0,0.51
2013-2-24,59.2,46.6,43.9,49.1,44.0,42.2,95,91,69,30.05,29.89,0,0,0,0.04
2013-2-25,45.7,38.4,32.9,33.7,27.4,24.2,81,65,51,30.35,30.15,2,0,2,0.00
2013-2-26,57.7,45.8,35.6,56.6,42.0,27.8,96,87,70,30.26,29.69,1,0,1,0.00
2013-2-27,63.0,50.6,41.0,49.4,43.3,37.1,95,78,51,29.89,29.74,1,0,1,0.00
2013-2-28,50.5,42.4,34.9,40.4,34.7,29.5,92,75,55,29.96,29.82,1,0,1,0.00
2013-3-1,54.1,41.7,31.3,36.1,31.3,27.4,86,68,49,30.03,29.94,1,0,1,0.00
2013-3-2,53.4,41.5,32.2,34.2,29.6,22.8,83,64,45,30.03,29.92,32,2,32,0.00
2013-3-3,49.3,36.8,30.2,27.6,20.7,-99.9,75,55,42,30.09,29.94,10,-18,10,0.00
2013-3-4,51.8,37.1,27.0,24.0,19.2,-99.9,73,51,31,30.22,30.08,11,-5,11,0.00
2013-3-5,55.8,42.8,29.7,42.6,34.5,-99.9,90,75,47,30.21,29.71,5,0,5,0.20
2013-3-6,45.0,41.7,37.9,43.1,35.5,31.4,93,79,64,30.11,29.59,17,5,17,0.00
2013-3-7,53.2,43.3,34.5,36.4,32.0,27.3,81,65,49,30.33,30.11,11,3,11,0.00
2013-3-8,56.8,44.3,32.7,33.0,28.9,25.0,75,56,38,30.38,30.23,13,4,13,0.00
2013-3-9,64.0,45.1,34.9,35.3,26.8,-99.9,77,55,34,30.44,30.35,8,-26,8,0.00
2013-3-12,74.8,62.6,57.6,65.1,56.3,46.6,94,80,50,30.10,29.85,7,2,8,0.38
2013-3-13,63.3,49.6,37.2,46.6,33.0,22.3,80,55,34,30.22,30.03,8,2,8,0.00
2013-3-14,55.2,41.9,30.4,26.9,22.9,18.6,64,48,33,30.34,30.20,2,1,2,0.00
2013-3-15,66.0,46.9,28.9,38.0,30.0,22.4,78,54,35,30.29,30.02,1,0,1,0.00
2013-3-16,80.1,60.3,45.1,53.5,45.1,35.5,77,59,39,30.02,29.76,2,0,2,0.00
2013-3-17,62.1,52.7,42.1,51.5,44.5,37.1,89,74,59,30.30,29.93,2,1,2,0.00
2013-3-18,46.0,41.8,38.3,42.7,39.2,35.9,93,90,84,30.30,30.02,2,1,2,0.00
2013-3-19,69.6,53.2,41.7,51.6,39.4,23.3,94,66,30,30.13,29.92,12,1,12,0.00
2013-3-20,61.3,48.5,35.4,27.4,21.4,14.0,71,36,24,30.24,29.92,9,2,9,0.00
2013-3-21,51.6,40.0,31.8,30.9,24.0,12.9,78,55,33,30.08,29.83,15,4,15,0.00
2013-3-22,56.1,39.0,24.8,24.4,19.3,12.8,70,47,26,30.20,30.07,9,1,9,0.00
2013-3-23,60.1,45.2,33.4,32.0,29.1,23.9,75,56,31,30.18,30.03,6,1,6,0.00
2013-3-24,41.5,37.7,32.9,37.5,32.3,-99.9,91,83,73,30.06,29.66,12,-7,12,0.12
2013-3-25,51.4,38.9,36.3,42.1,24.5,-99.9,91,70,49,29.91,29.66,11,-69,11,0.00
2013-3-26,55.9,43.7,33.8,35.7,30.2,26.1,77,59,45,30.20,29.91,10,2,10,0.00
2013-3-27,59.4,44.2,32.4,33.1,27.6,22.5,78,54,34,30.33,30.20,14,3,14,0.00
2013-3-28,61.0,45.8,32.2,32.1,27.3,23.7,75,51,31,30.40,30.25,10,3,10,0.00
2013-3-29,64.9,46.9,30.0,35.2,29.5,23.4,81,54,30,30.45,30.30,8,1,8,0.00
2013-3-30,70.9,52.0,34.5,40.4,35.2,28.0,82,57,29,30.36,30.20,6,1,6,0.00
2013-3-31,70.9,56.4,46.6,59.6,48.6,-99.9,90,77,64,30.24,29.93,6,-6,6,0.14
2013-4-1,76.1,57.3,54.0,55.4,41.8,-99.9,93,66,36,30.07,29.92,8,-48,8,0.00
2013-4-2,64.6,50.7,39.0,40.9,32.5,29.0,76,52,30,30.27,30.05,6,1,8,0.00
2013-4-3,64.6,50.4,40.8,34.2,28.7,25.4,75,46,26,30.42,30.25,9,2,9,0.00
2013-4-4,53.1,43.7,38.3,38.9,33.3,27.8,92,68,46,30.49,30.02,11,4,11,0.00
2013-4-5,64.6,49.1,39.4,48.4,41.2,-99.9,92,79,54,30.13,29.95,10,-2,10,0.00
2013-4-6,66.9,52.4,38.5,40.2,35.8,32.2,90,57,32,30.42,30.13,11,3,11,0.00
2013-4-7,76.6,55.1,34.0,48.3,40.4,29.0,85,61,36,30.42,30.24,8,1,8,0.00
2013-4-8,84.2,66.0,50.5,60.7,52.9,46.1,87,65,41,30.30,30.17,8,1,8,0.00
2013-4-9,89.2,68.3,55.0,65.0,57.1,50.2,88,67,39,30.31,30.18,7,-4,7,0.00
2013-4-10,91.9,74.2,59.2,67.2,60.3,54.2,86,64,40,30.22,30.07,7,1,7,0.00
2013-4-11,88.3,72.7,60.3,66.4,60.6,55.3,89,68,41,30.13,29.94,8,1,8,0.00
2013-4-12,81.0,69.6,50.0,71.9,64.2,-99.9,92,83,50,29.97,29.74,32,-2,32,0.00
2013-4-13,79.7,65.2,54.0,63.4,48.2,42.5,91,57,32,30.13,29.87,8,2,8,0.00
2013-4-14,85.8,65.6,48.0,58.3,48.7,-99.9,88,60,27,30.23,30.13,6,0,6,0.00
2013-4-15,73.4,63.0,59.7,59.4,49.7,-99.9,84,67,59,30.34,30.15,8,-43,8,0.00
2013-4-16,81.7,65.7,55.6,65.8,58.6,52.4,93,79,55,30.44,30.32,6,0,6,0.00
2013-4-17,90.1,69.9,55.6,68.9,60.1,-99.9,91,74,49,30.37,30.23,4,-14,4,0.00
2013-4-18,82.8,68.8,58.5,66.6,59.7,-99.9,90,73,53,30.33,30.18,57,-3,57,0.00
2013-4-19,67.6,18.3,65.8,62.1,-55.6,-99.9,85,22,81,30.18,30.07,4,-724,4,0.00
2013-4-20,60.4,39.5,32.0,47.6,25.3,-99.9,93,71,47,30.39,29.94,10,-4,10,0.00
2013-4-21,65.8,52.2,41.4,46.7,41.7,36.4,91,69,46,30.62,30.39,8,2,8,0.00
2013-4-22,61.3,49.1,37.8,46.8,41.2,33.3,86,75,57,30.62,30.37,13,4,13,0.00
2013-4-23,68.4,55.3,47.5,54.4,47.6,-99.9,91,79,59,30.38,30.25,6,-5,6,0.00
2013-4-24,85.3,62.8,46.9,61.5,52.7,-99.9,92,73,47,30.28,30.09,6,0,6,0.00
2013-4-25,72.5,62.0,53.1,57.2,51.5,44.6,86,69,52,30.41,30.13,7,1,7,0.00
2013-4-26,77.9,59.9,46.2,52.0,46.7,42.6,90,66,33,30.54,30.40,6,0,6,0.00
2013-4-27,78.1,63.0,51.4,52.7,48.9,45.7,84,63,36,30.51,30.38,4,0,4,0.00
2013-4-28,65.5,53.8,54.9,54.3,34.0,-99.9,89,63,62,30.41,30.23,0,-106,0,0.00
2013-4-29,69.6,60.5,55.6,65.5,55.0,-99.9,93,88,86,30.24,30.09,0,-28,0,0.00
2013-4-30,65.3,56.7,57.9,60.5,48.0,-99.9,96,86,84,30.28,30.12,57,-67,57,0.00
2013-5-1,61.0,52.6,57.7,58.4,40.1,-99.9,95,82,90,30.45,30.26,0,-117,0,0.00
2013-5-2,63.7,59.6,54.9,58.9,56.1,50.8,95,88,82,30.46,30.36,57,0,57,0.00
2013-5-3,72.3,58.3,49.8,58.8,50.6,44.4,93,77,55,30.39,30.29,0,0,0,0.00
2013-5-4,65.8,55.5,49.8,55.8,48.8,-99.9,89,81,22,30.33,30.20,4,0,4,0.00
2013-5-5,60.4,51.1,49.6,56.6,39.3,-99.9,91,81,82,30.24,30.12,5,-64,5,0.00
2013-5-6,70.3,52.0,56.7,66.3,31.8,-99.9,95,76,84,30.14,29.94,18,-179,18,0.00
2013-5-7,75.0,63.0,53.8,62.4,56.9,50.9,94,82,54,30.08,29.98,3,0,3,0.00
2013-5-8,75.4,52.2,50.7,64.5,35.5,-99.9,95,75,63,30.14,30.04,2,-129,2,0.00
2013-5-9,82.6,66.0,55.4,66.4,57.0,-99.9,95,78,52,30.19,30.10,57,-14,57,0.00
2013-5-10,90.5,46.4,57.2,68.7,4.8,-99.9,91,50,44,30.19,30.07,57,-339,57,0.00
2013-5-11,86.9,73.5,66.7,68.5,64.0,60.2,90,73,50,30.10,29.91,5,0,5,0.00
2013-5-12,77.9,67.2,55.2,63.7,56.0,42.6,92,70,46,30.15,29.91,4,1,4,0.00
2013-5-13,72.3,58.7,50.4,46.0,42.6,38.4,76,57,35,30.30,30.14,5,1,5,0.00
2013-5-14,75.0,58.2,42.6,48.1,43.3,37.8,86,61,31,30.38,30.21,4,0,4,0.00
2013-5-15,90.7,70.2,53.2,67.1,57.1,46.4,80,65,43,30.23,30.01,4,0,4,0.00
2013-5-16,96.1,75.2,64.2,75.6,62.1,58.9,83,65,45,30.10,30.01,4,0,4,0.00
2013-5-17,91.0,75.2,61.7,67.5,63.1,57.1,88,68,41,30.22,30.10,4,0,4,0.00
2013-5-18,76.5,70.2,65.3,71.6,65.7,61.5,92,86,74,30.30,30.19,0,0,0,0.00
2013-5-19,82.0,69.9,65.3,73.2,66.5,63.4,95,89,60,30.29,30.19,2,0,2,0.00
2013-5-20,81.1,70.8,66.9,74.8,68.1,64.8,96,91,76,30.26,30.16,2,0,2,0.00
2013-5-21,81.7,71.9,67.8,75.7,69.3,66.0,96,92,81,30.18,30.08,3,0,3,0.00
2013-5-22,87.6,74.0,66.6,75.4,69.1,63.8,96,86,63,30.17,30.06,0,0,0,0.00
2013-5-23,82.8,72.2,68.5,74.1,69.0,66.1,95,90,73,30.11,29.97,0,0,0,0.00
2013-5-24,73.0,63.9,53.8,65.7,54.4,-99.9,96,75,54,30.30,29.92,6,-10,6,0.00
2013-5-25,76.1,58.2,45.1,51.2,43.2,-99.9,86,63,36,30.39,30.25,6,-10,6,0.00
2013-5-26,78.6,55.2,49.6,57.2,37.6,-99.9,84,63,38,30.40,30.30,3,-86,3,0.00
2013-5-27,84.7,65.9,49.8,59.9,53.8,46.3,90,68,39,30.41,30.29,57,-3,57,0.00
2013-5-28,71.2,57.4,58.6,62.7,46.7,-99.9,87,78,75,30.39,30.32,0,-66,0,0.00
2013-5-29,32.0,32.0,32.0,62.9,40.8,32.0,90,70,50,30.37,30.29,2,0,2,0.00
2013-5-30,76.5,42.0,32.0,67.1,40.2,32.0,91,71,45,30.40,30.30,2,0,3,0.00
2013-5-31,92.8,72.4,66.7,73.8,59.3,-99.9,90,72,49,30.36,30.23,4,-58,4,0.00
2013-6-1,93.0,77.8,68.2,74.0,67.3,-99.9,90,73,50,30.28,30.15,3,-7,3,0.00
2013-6-2,91.9,78.3,68.7,73.4,68.2,64.5,88,72,50,30.20,30.03,3,0,3,0.00
2013-6-3,78.1,74.1,69.4,74.7,70.7,67.0,94,89,77,30.10,29.97,1,0,1,0.00
2013-6-4,79.7,67.5,67.1,67.4,56.5,-99.9,96,79,65,30.24,30.05,57,-49,57,0.00
2013-6-5,87.1,70.5,60.6,67.0,58.1,-99.9,92,72,49,30.28,30.15,0,-31,0,0.00
2013-6-6,75.7,58.7,65.8,71.5,39.4,-99.9,94,73,73,30.19,29.97,0,-159,0,0.00
2013-6-7,80.8,70.8,68.7,78.8,67.9,-99.9,98,94,91,29.99,29.56,4,-14,4,0.00
2013-6-8,85.8,74.9,68.5,76.9,71.2,67.6,97,89,72,30.22,29.95,6,0,6,0.00
2013-6-9,88.5,76.5,67.3,78.2,71.9,65.8,96,86,68,30.30,30.19,0,0,0,0.00
2013-6-10,86.5,75.5,70.9,79.9,72.7,69.6,96,91,77,30.25,30.04,6,0,6,0.00
2013-6-11,89.2,76.5,70.0,75.2,70.3,66.6,96,83,59,30.09,30.01,4,0,4,0.00
2013-6-12,92.8,77.9,66.2,77.4,71.2,64.1,94,81,58,30.10,29.99,3,0,3,0.00
2013-6-13,98.8,81.9,69.6,82.1,74.2,66.1,94,79,51,30.00,29.71,17,0,17,0.00
2013-6-14,82.0,71.8,63.7,66.6,61.4,58.1,91,71,49,30.15,29.83,57,2,57,0.00
2013-6-15,89.6,72.3,59.5,70.4,62.7,-99.9,90,75,51,30.25,30.14,2,0,2,0.00
2013-6-16,91.8,75.4,63.3,72.2,65.8,58.7,87,73,52,30.26,30.13,5,0,5,0.00
2013-6-17,88.3,77.4,69.4,75.7,69.8,64.8,86,78,64,30.18,30.06,2,0,2,0.00
2013-6-18,86.2,76.2,70.7,76.2,71.1,67.3,93,84,72,30.10,29.86,2,0,2,0.00
2013-6-19,80.4,72.3,66.0,71.0,67.5,64.2,95,85,72,30.25,29.99,0,0,0,0.00
2013-6-20,86.0,72.6,63.5,68.7,63.5,56.9,94,75,54,30.38,30.24,0,0,0,0.00
2013-6-21,88.2,72.0,58.1,69.2,62.7,54.5,92,74,52,30.39,30.30,0,0,0,0.00
2013-6-22,78.6,72.0,68.9,73.2,69.0,66.5,96,90,81,30.34,30.22,0,0,0,0.00
2013-6-23,87.1,76.0,69.6,80.2,72.8,68.1,96,90,76,30.34,30.25,0,0,0,0.00
2013-6-24,90.9,78.4,72.1,80.0,73.9,70.3,95,86,68,30.34,30.22,0,0,0,0.00
2013-6-25,92.8,75.6,70.5,80.5,71.6,68.4,94,88,66,30.27,30.14,0,0,0,0.00
2013-6-26,93.4,76.8,69.6,80.7,72.3,67.2,97,87,65,30.17,30.02,0,0,0,0.00
2013-6-27,92.5,76.7,68.5,81.2,72.2,51.2,97,87,64,30.04,29.85,0,-4,0,0.00
2013-6-28,94.6,79.5,72.7,81.6,74.2,69.7,95,85,64,29.90,29.71,57,0,57,0.00
2013-6-29,88.3,76.5,69.4,80.0,72.6,-99.9,96,89,73,29.88,29.73,0,0,0,0.00
2013-6-30,87.4,77.1,71.2,80.2,73.9,69.1,95,90,76,30.02,29.86,57,0,57,0.00
2013-7-1,79.7,74.3,71.4,77.6,73.0,69.9,98,96,92,30.14,29.98,0,0,0,0.00
2013-7-2,80.2,73.6,72.1,78.5,72.8,71.0,99,97,90,30.33,30.13,0,0,0,0.00
2013-7-3,84.4,76.1,72.0,81.5,75.0,71.7,99,97,87,30.39,30.29,0,0,0,0.00
2013-7-4,91.9,78.8,72.3,82.2,75.6,71.5,99,91,70,30.42,30.32,4,0,4,0.00
2013-7-5,93.9,80.1,71.8,82.0,75.5,70.4,97,87,65,30.41,30.29,9,0,9,0.00
2013-7-6,92.5,78.9,72.3,81.1,74.4,70.5,96,86,65,30.40,30.26,2,0,2,0.00
2013-7-7,93.9,79.6,69.6,80.5,72.7,-99.9,95,84,63,30.33,30.19,5,0,5,0.00
2013-7-8,86.5,76.9,72.1,80.8,73.9,70.5,95,91,81,30.31,30.22,5,0,5,0.00
2013-7-9,87.4,76.7,71.1,82.9,74.3,69.8,97,92,81,30.29,30.21,3,0,3,0.00
2013-7-10,89.6,79.1,73.6,82.2,76.1,72.4,97,91,78,30.24,30.08,4,0,4,0.00
2013-7-11,87.6,77.0,73.2,80.6,74.1,71.7,95,91,76,30.13,30.02,5,0,5,0.00
2013-7-12,74.7,72.6,71.1,73.7,71.6,70.2,98,97,96,30.15,29.99,1,0,1,0.00
2013-7-13,84.7,74.7,70.9,82.1,73.6,70.3,99,96,88,30.33,30.14,2,0,2,0.00
2013-7-14,89.2,77.8,70.2,81.9,74.7,69.5,99,91,78,30.43,30.33,4,0,4,0.00
2013-7-15,91.2,78.7,69.6,81.0,74.2,68.4,98,87,68,30.45,30.37,2,0,2,0.00
2013-7-16,96.1,81.2,70.9,82.9,75.7,69.3,96,84,62,30.40,30.30,3,0,3,0.00
2013-7-17,95.9,83.4,75.0,81.0,76.8,73.2,95,82,58,30.35,30.22,3,0,3,0.00
2013-7-18,96.4,82.7,73.8,83.9,77.0,71.6,94,84,64,30.28,30.16,1,0,1,0.00
2013-7-19,94.1,81.6,73.9,82.2,76.2,72.1,95,85,66,30.23,30.11,4,0,4,0.00
2013-7-20,93.0,80.9,75.0,81.9,75.5,72.6,93,84,66,30.17,30.04,3,0,3,0.00
2013-7-21,91.6,79.1,72.5,80.7,74.3,69.9,93,86,71,30.13,30.02,57,0,57,0.00
2013-7-22,91.6,79.4,72.3,80.5,72.9,-99.9,95,85,68,30.09,29.94,3,-3,3,0.00
2013-7-23,94.1,80.6,73.9,79.9,75.5,71.7,94,85,62,29.98,29.84,4,-3,4,0.00
2013-7-24,95.0,80.2,72.0,81.8,74.5,70.1,95,84,64,29.98,29.84,3,0,3,0.00
2013-7-25,81.5,73.9,70.0,74.1,69.6,-99.9,94,88,75,30.15,29.94,5,1,5,0.00
2013-7-26,89.8,74.5,64.2,74.2,67.1,-99.9,94,81,56,30.23,30.14,2,-3,2,0.00
2013-7-27,89.2,75.3,65.8,77.8,70.1,63.4,94,85,66,30.20,30.07,3,0,3,0.00
2013-7-28,88.9,77.9,71.8,80.0,73.7,69.5,95,87,71,30.13,30.04,2,0,2,0.00
2013-7-29,88.9,77.9,72.7,76.7,72.8,69.2,94,85,64,30.28,30.12,3,0,3,0.00
2013-7-30,91.6,76.7,66.6,76.6,69.9,63.2,91,81,60,30.34,30.26,2,0,2,0.00
2013-7-31,84.0,76.3,70.9,77.5,72.2,68.7,94,87,77,30.28,30.14,2,0,2,0.00
2013-8-1,87.4,76.7,71.4,78.6,73.1,69.3,95,89,74,30.15,29.98,4,0,4,0.33
2013-8-2,92.8,79.1,69.1,79.8,73.0,-99.9,96,84,63,30.15,30.02,3,-3,3,0.00
2013-8-3,89.8,78.8,72.3,81.4,74.1,-99.9,94,87,74,30.15,30.02,0,0,0,0.02
2013-8-4,88.0,75.5,67.6,73.1,68.4,-99.9,96,81,58,30.16,30.00,6,-3,6,0.00
2013-8-5,88.3,73.1,62.4,70.3,65.3,-99.9,94,79,54,30.22,30.13,4,0,4,0.00
2013-8-6,84.9,73.7,67.3,76.7,68.8,64.1,92,85,72,30.20,30.13,2,0,2,0.00
2013-8-7,91.8,77.0,66.7,77.7,70.7,64.3,94,82,61,30.24,30.15,5,0,5,0.00
2013-8-8,93.4,79.3,70.2,78.7,72.6,68.0,94,81,60,30.20,30.13,0,0,0,0.00
2013-8-9,95.5,81.5,73.6,81.2,75.3,71.1,94,82,61,30.18,30.10,5,0,5,0.00
2013-8-10,97.7,81.2,74.1,83.6,75.0,-99.9,93,84,61,30.23,30.12,6,0,6,0.14
2013-8-11,93.9,79.6,72.1,83.1,75.0,70.3,97,87,66,30.24,30.12,4,0,4,0.06
2013-8-12,93.7,81.1,72.9,80.0,75.2,71.3,97,83,60,30.18,30.06,4,0,4,0.00
2013-8-13,92.1,79.5,71.8,81.6,75.2,69.9,97,87,68,30.10,29.90,9,0,9,0.82
2013-8-14,75.7,71.5,62.4,73.6,66.5,59.2,94,84,71,30.21,29.93,6,1,6,0.00
2013-8-15,79.7,66.6,59.9,65.4,60.7,57.3,92,82,56,30.28,30.20,5,0,5,0.00
2013-8-16,73.9,66.1,59.7,65.0,62.1,57.3,92,86,73,30.30,30.21,6,0,6,0.00
2013-8-17,74.1,68.6,64.0,72.6,66.9,61.7,97,94,91,30.29,30.22,4,0,4,0.14
2013-8-18,84.9,75.6,68.9,76.1,71.3,66.5,98,87,73,30.33,30.23,3,0,3,0.00
2013-8-19,73.0,69.7,66.9,71.8,68.3,65.3,97,95,92,30.33,30.21,0,0,0,0.28
2013-8-20,80.4,74.1,69.3,76.2,72.1,68.3,98,94,85,30.31,30.23,1,0,1,0.00
2013-8-21,89.4,68.5,70.3,80.3,53.8,-99.9,97,80,72,30.36,30.23,9,-123,9,0.04
2013-8-22,91.4,74.5,70.0,78.8,64.9,-99.9,97,81,61,30.28,30.12,3,-43,3,0.04
2013-8-23,90.3,76.5,69.6,78.5,72.1,68.1,97,86,64,30.18,30.04,5,0,5,0.00
2013-8-24,83.7,72.6,65.3,69.9,64.5,62.0,93,77,54,30.43,30.18,8,2,8,0.00
2013-8-25,80.6,67.0,50.0,64.6,60.2,50.0,94,78,50,30.51,29.53,6,1,6,0.00
2013-8-26,86.0,68.3,55.6,67.4,57.6,-99.9,94,75,52,30.45,30.23,4,-11,4,0.00
2013-8-27,88.5,44.4,61.2,75.7,-3.3,-99.9,92,46,61,30.25,30.08,3,-435,3,0.00
2013-8-28,82.2,41.4,75.0,76.2,-7.5,-99.9,95,48,83,30.11,29.98,0,-470,0,0.02
2013-8-29,86.7,74.7,71.8,77.2,68.0,-99.9,96,86,72,30.14,29.95,7,-27,7,0.02
2013-8-30,89.4,74.8,65.3,74.7,68.8,63.8,96,83,57,30.19,30.07,2,0,2,0.00
2013-8-31,90.1,66.9,66.4,76.1,47.7,-99.9,96,70,62,30.10,30.00,0,-129,0,0.00
2013-9-1,87.6,75.9,71.6,80.0,73.1,69.9,96,91,76,30.03,29.92,0,0,0,0.14
2013-9-2,88.9,77.5,70.5,80.8,74.4,69.6,98,90,73,30.02,29.92,1,0,1,0.00
2013-9-3,75.7,73.0,72.3,73.9,65.8,-99.9,96,89,94,29.96,29.93,0,-26,0,0.00
2013-9-4,50.0,50.0,50.0,75.7,70.6,67.0,97,88,70,30.21,30.06,4,0,4,0.00
2013-9-5,67.8,51.3,50.0,75.5,69.2,63.4,97,83,56,30.21,30.14,3,0,5,0.00
2013-9-6,85.5,71.9,64.2,69.0,63.6,-99.9,92,77,53,30.29,30.19,6,-6,6,0.00
2013-9-7,84.0,69.9,59.4,68.1,63.1,56.9,94,80,57,30.26,30.10,57,0,57,0.00
2013-9-8,89.4,70.9,32.0,74.9,62.8,-99.9,95,79,50,30.12,30.02,4,0,4,0.00
2013-9-9,89.1,73.2,64.0,74.7,65.6,-99.9,95,81,61,30.29,30.11,0,-14,0,0.00
2013-9-10,92.5,75.3,66.4,75.5,66.4,-99.9,95,79,57,30.36,30.28,0,-18,0,0.00
2013-9-11,88.7,61.7,66.7,76.6,38.9,-99.9,94,70,65,30.34,30.20,0,-177,0,0.00
2013-9-12,91.6,75.8,50.0,67.6,46.2,32.0,95,80,50,30.22,29.93,32,0,32,0.02
2013-9-13,86.4,74.9,67.8,32.0,32.0,32.0,96,79,54,30.01,29.87,0,0,0,0.00
2013-9-14,78.6,66.0,58.3,56.3,36.0,32.0,84,71,47,30.27,30.00,0,0,0,0.00
2013-9-15,82.9,66.1,53.4,64.0,58.1,50.5,92,77,51,30.37,30.24,0,0,0,0.00
2013-9-16,86.9,71.6,62.2,74.8,64.9,58.7,95,81,56,30.32,30.15,57,0,57,0.00
2013-9-17,77.7,66.4,58.6,60.6,57.1,52.0,90,73,51,30.44,30.31,57,0,57,0.00
2013-9-18,75.0,63.0,51.4,59.3,54.6,48.3,89,75,54,30.43,30.30,0,0,0,0.00
2013-9-19,80.6,64.5,52.7,63.3,57.6,49.8,93,80,55,30.32,30.21,0,0,0,0.00
2013-9-20,75.7,67.3,63.5,68.6,63.1,-99.9,93,88,77,30.23,30.10,0,-3,0,0.00
2013-9-21,74.5,69.2,65.8,71.2,67.3,63.7,96,93,89,30.10,29.84,0,0,0,0.00
2013-9-22,75.7,68.3,61.7,69.6,64.0,58.8,97,87,68,30.00,29.83,0,0,0,0.00
2013-9-23,73.6,61.9,54.7,58.9,55.8,51.5,92,81,60,30.20,29.99,0,0,0,0.00
2013-9-24,78.4,62.7,52.9,63.1,56.9,50.3,94,83,58,30.23,30.07,0,0,0,0.00
2013-9-25,75.7,63.6,52.9,64.1,58.6,50.9,95,85,65,30.09,29.99,0,0,0,0.00
2013-9-26,77.7,65.8,59.2,62.6,59.8,55.9,95,82,57,30.16,29.99,0,0,0,0.00
2013-9-27,74.8,63.0,56.5,62.3,57.0,53.0,95,82,59,30.31,30.15,0,0,0,0.00
2013-9-28,73.9,62.3,53.8,61.6,56.2,51.7,94,81,64,30.37,30.27,0,0,0,0.00
2013-9-29,75.2,63.1,53.8,61.8,57.0,51.5,94,82,61,30.29,30.14,2,0,2,0.00
2013-10-2,84.7,68.2,57.0,67.7,61.3,54.7,93,80,56,30.25,30.17,0,0,0,0.00
2013-10-3,85.3,69.3,58.6,69.9,63.1,56.2,93,82,59,30.26,30.19,0,0,0,0.00
2013-10-4,86.4,71.7,62.4,71.2,65.4,60.1,94,82,59,30.26,30.17,0,0,0,0.00
2013-10-5,88.5,72.7,62.2,72.7,65.9,59.9,93,81,56,30.23,30.16,0,0,0,0.00
2013-10-6,82.6,71.4,63.9,73.8,67.3,61.5,95,87,75,30.20,30.08,0,0,0,0.00
2013-10-7,77.2,71.4,67.1,73.0,69.3,65.6,97,93,87,30.09,29.98,0,0,0,0.00
2013-10-8,67.1,59.0,56.3,65.6,54.3,50.6,95,85,75,30.30,30.09,0,0,0,0.00
2013-10-9,61.0,58.0,55.8,56.8,54.5,52.5,95,88,84,30.28,30.16,0,0,0,0.00
2013-10-10,59.4,56.8,54.1,57.5,55.4,52.7,97,95,93,30.16,30.03,0,0,0,0.00
2013-10-11,64.4,61.2,57.9,61.9,59.6,56.8,97,94,90,30.09,30.00,0,0,0,0.00
2013-10-12,68.5,64.4,61.2,65.8,62.6,59.7,96,94,90,30.19,30.06,0,0,0,0.00
2013-10-13,68.2,64.7,62.2,66.3,63.5,61.4,97,96,92,30.31,30.18,0,0,0,0.00
2013-10-14,67.6,63.4,58.3,63.4,61.3,56.6,97,93,85,30.35,30.28,0,0,0,0.00
2013-10-15,69.4,53.5,53.8,63.3,39.5,-99.9,96,82,80,30.31,30.17,0,-118,0,0.00
2013-10-16,70.3,65.4,62.2,65.9,62.9,60.9,97,92,83,30.18,30.08,0,0,0,0.00
2013-10-17,76.3,67.3,60.6,69.2,64.1,59.2,96,90,76,30.09,29.96,0,0,0,0.00
2013-10-18,67.8,63.4,58.6,65.1,57.3,51.6,95,81,65,30.16,30.00,0,0,0,0.00
2013-10-19,67.3,63.6,60.6,65.4,61.7,57.7,96,94,89,30.10,29.94,0,0,0,0.00
2013-10-20,65.7,56.0,47.1,61.0,46.8,-99.9,95,78,56,30.25,30.01,0,-21,0,0.00
2013-10-21,65.1,30.8,41.0,51.7,-11.5,-99.9,94,50,50,30.29,30.13,0,-405,0,0.00
2013-10-22,63.5,55.6,50.9,59.6,50.9,-99.9,94,90,86,30.14,29.94,57,-17,57,0.00
2013-10-23,58.3,56.5,56.3,57.1,55.7,54.9,96,95,94,29.94,29.81,0,0,0,0.00
2013-10-24,60.1,46.8,32.0,42.1,37.5,-99.9,85,61,49,30.30,30.07,32,0,32,0.00
2013-10-25,57.4,47.1,40.3,50.0,35.4,-99.9,85,64,42,30.48,30.29,0,-26,0,0.00
2013-10-26,60.1,44.6,32.7,50.0,34.6,-99.9,89,71,46,30.47,30.20,0,-8,0,0.00
2013-10-27,65.8,19.0,42.6,46.3,-46.5,-99.9,87,30,48,30.26,30.17,0,-642,0,0.00
2013-10-28,66.6,32.5,43.2,57.3,-14.2,-99.9,91,48,71,30.38,30.26,0,-419,0,0.00
2013-10-29,72.5,45.1,50.7,60.1,17.0,-99.9,94,61,63,30.45,30.36,0,-254,0,0.00
2013-10-30,71.4,54.0,52.0,63.2,38.1,-99.9,93,76,73,30.43,30.28,0,-118,0,0.00
2013-10-31,75.9,54.2,54.7,63.8,32.7,-99.9,94,68,64,30.32,30.07,0,-179,0,0.00
2013-11-1,74.8,67.2,65.8,68.7,62.2,-99.9,96,90,79,30.07,29.82,0,-14,0,0.00
2013-11-2,71.4,62.3,56.1,64.8,54.6,-99.9,96,80,55,30.03,29.80,0,-7,0,0.00
2013-11-3,62.8,52.4,43.9,51.0,39.6,-99.9,82,61,49,30.49,29.53,32,7,32,0.00
2013-11-4,54.3,37.3,32.0,50.0,11.7,-99.9,86,52,50,30.67,30.49,0,-169,0,0.00
2013-11-5,58.3,39.9,39.9,49.8,14.1,-99.9,88,65,73,30.65,30.54,0,-212,0,0.00
2013-11-6,70.3,41.1,47.5,58.9,8.5,-99.9,95,61,66,30.55,30.24,0,-265,0,0.00
2013-11-7,70.9,59.6,46.9,65.2,49.9,-99.9,95,81,63,30.24,30.02,0,-38,0,0.00
2013-11-8,47.1,40.8,38.5,37.2,29.0,-99.9,84,70,68,30.39,30.22,0,-43,0,0.00
2013-11-9,59.2,43.5,46.8,42.1,14.2,-99.9,80,48,47,30.50,30.31,32,-114,32,0.00
2013-11-10,32.0,32.0,32.0,32.0,32.0,32.0,50,50,50,30.32,30.32,0,0,0,0.00
2013-11-11,32.0,32.0,32.0,32.0,32.0,32.0,50,50,50,30.32,30.32,0,0,0,0.00
2013-11-12,60.1,33.8,32.0,45.4,12.3,-99.9,85,52,50,30.52,30.20,0,-145,0,0.00
2013-11-13,44.4,34.5,28.6,25.3,19.9,-99.9,78,59,42,30.64,30.51,0,-17,0,0.00
2013-11-14,55.9,37.6,25.5,32.8,26.6,-99.9,85,67,39,30.59,30.46,0,-7,0,0.00
2013-11-15,59.9,26.2,29.5,48.9,9.8,-99.9,85,61,51,30.49,30.34,0,-199,0,0.00
2013-11-16,64.6,53.2,50.5,59.3,45.5,-99.9,93,84,81,30.40,30.33,0,-28,0,0.00
2013-11-17,72.3,42.5,54.1,63.6,8.6,-99.9,95,63,72,30.34,30.05,0,-332,0,0.00
2013-11-18,74.1,48.4,56.1,66.0,14.8,-99.9,96,57,51,30.05,29.91,0,-221,0,0.00
2013-11-19,56.1,48.7,41.5,38.2,32.6,30.6,68,54,42,30.44,30.05,32,2,32,0.00
2013-11-20,52.5,44.7,37.4,39.9,34.7,29.2,79,68,56,30.57,30.43,10,2,10,0.00
2013-11-21,63.9,51.2,42.6,52.4,44.8,37.3,87,79,66,30.62,30.49,8,2,8,0.00
2013-11-22,72.9,58.6,49.5,63.2,51.6,-99.9,93,83,70,30.51,30.21,5,-31,5,0.00
2013-11-23,61.9,37.5,32.0,59.5,-2.6,-99.9,94,55,49,30.28,30.14,7,-346,7,0.00
2013-11-24,42.6,30.7,25.0,27.1,6.9,-99.9,66,46,33,30.66,30.28,11,-63,11,0.00
2013-11-25,42.4,30.6,19.8,23.1,17.7,13.3,78,60,37,30.72,30.49,5,0,5,0.00
2013-11-26,64.6,45.0,32.7,63.5,37.2,-99.9,97,77,63,30.51,29.70,58,-13,58,0.00
2013-11-27,64.9,44.0,31.3,64.1,36.9,-99.9,97,86,75,30.27,29.60,10,-60,10,0.00
2013-11-28,44.1,26.1,25.9,32.0,-1.1,-99.9,87,54,50,30.62,30.27,7,-208,7,0.00
2013-11-29,49.1,20.3,25.0,33.2,-21.8,-99.9,91,50,50,30.75,30.59,8,-360,8,0.00
2013-11-30,50.0,27.7,28.9,50.0,0.5,-99.9,86,60,50,30.75,30.49,7,-223,7,0.00
2013-12-1,58.6,24.9,30.9,44.4,-24.2,-99.9,91,40,50,30.48,30.15,1,-425,1,0.00
2013-12-2,58.8,34.8,35.2,48.2,3.0,-99.9,91,56,54,30.15,29.95,3,-245,3,0.00
2013-12-3,59.7,44.3,31.8,48.4,35.7,-99.9,91,78,65,30.14,29.99,6,-42,6,0.00
2013-12-4,64.2,55.7,48.7,58.6,51.6,-99.9,92,87,81,30.22,30.11,0,0,0,0.00
2013-12-5,68.4,47.6,52.0,64.1,23.2,-99.9,96,72,50,30.28,30.18,54,-217,54,0.00
2013-12-6,78.4,53.8,62.2,68.5,26.8,-99.9,96,63,69,30.22,30.10,10,-232,10,0.00
2013-12-7,66.7,41.7,42.4,64.3,21.4,-99.9,93,72,75,30.58,30.12,61,-154,61,0.00
2013-12-8,42.4,35.8,34.0,35.7,30.8,-99.9,93,85,73,30.58,30.41,11,-12,11,0.00
2013-12-9,46.9,33.6,35.2,45.6,13.7,-99.9,95,77,93,30.41,30.18,0,-176,0,0.00
2013-12-10,47.8,35.8,31.1,46.8,17.3,-99.9,96,77,85,30.45,30.03,7,-166,7,0.00
2013-12-11,48.9,35.5,27.1,35.7,30.3,25.4,94,83,56,30.58,30.41,2,0,2,0.00
2013-12-12,45.0,34.6,26.8,30.0,25.5,-99.9,92,72,45,30.54,30.38,7,0,7,0.00
2013-12-13,50.5,34.8,24.4,31.3,26.5,20.8,89,74,45,30.52,30.39,3,0,3,0.00
2013-12-14,46.9,40.5,35.2,41.6,34.9,-99.9,93,84,68,30.43,29.89,4,-14,4,0.00
2013-12-15,53.4,44.3,34.7,46.3,38.9,29.6,94,82,63,30.19,29.82,8,0,8,0.00
2013-12-16,54.1,39.3,30.0,39.7,33.0,27.5,91,79,56,30.31,30.18,4,-3,4,0.00
2013-12-17,60.1,44.7,31.8,45.1,37.5,29.6,93,77,54,30.25,30.00,57,-3,57,0.00
2013-12-18,48.9,39.8,30.0,38.3,28.5,24.5,81,65,43,30.42,30.15,8,1,8,0.00
2013-12-19,59.5,41.6,27.1,37.5,30.7,23.5,88,68,40,30.45,30.35,9,0,9,0.00
2013-12-20,65.1,51.3,39.0,55.7,44.6,32.1,86,78,69,30.38,30.24,6,0,6,0.00
2013-12-21,73.0,59.0,46.6,63.5,54.5,43.7,94,85,71,30.29,30.18,9,0,9,0.00
2013-12-22,80.2,70.1,64.9,69.7,65.2,61.0,94,85,66,30.23,30.16,10,1,10,0.00
2013-12-23,71.4,62.3,48.7,70.2,60.5,47.0,97,94,87,30.26,30.11,8,1,8,0.00
2013-12-24,49.1,41.8,30.6,47.4,34.0,19.8,94,74,60,30.57,30.23,11,4,11,0.00
2013-12-25,39.0,30.2,24.6,22.4,19.3,15.5,83,64,50,30.67,30.50,8,2,8,0.00
2013-12-26,48.6,35.3,25.2,37.5,29.6,20.7,88,80,63,30.52,30.36,3,0,3,0.00
2013-12-27,51.3,36.8,28.6,35.2,28.5,23.4,88,73,49,30.58,30.47,5,0,5,0.00
2013-12-28,59.5,40.0,25.7,39.8,31.9,22.6,90,75,44,30.53,30.28,6,0,6,0.00
2013-12-29,64.9,46.6,44.8,64.1,31.4,-99.9,97,80,81,30.29,29.76,9,-115,9,0.00
2013-12-30,57.4,36.9,38.3,49.9,14.7,-99.9,96,72,66,30.27,30.04,3,-174,3,0.00
2013-12-31,51.6,33.9,33.1,40.5,7.3,-99.9,89,63,53,30.47,30.23,7,-180,7,0.00
2014-1-1,52.3,39.6,30.4,37.5,32.6,27.5,91,77,52,30.56,30.27,7,0,7,0.00
2014-1-2,48.4,44.2,40.3,45.6,40.3,-99.9,93,87,82,30.28,29.67,9,-3,9,0.00